| time (UTC) | temp F | wind direction | speed MPH | gust MPH | rain 1hr in | rain 24hr in | rain mn in | humidity % | barometer mb |
| 20260508080904 | 62 | 106 | 7.0 | 12.0 | 0.00 | 0.03 | 0.00 | 74 | 1012.3 |
| 20260508080405 | 62 | 107 | 6.0 | 12.0 | 0.00 | 0.03 | 0.00 | 73 | 1012.3 |
| 20260508074905 | 62 | 164 | 2.0 | 5.0 | 0.00 | 0.03 | 0.00 | 74 | 1012.4 |
| 20260508073905 | 60 | 300 | 2.0 | 3.0 | 0.00 | 0.03 | 0.00 | 76 | 1012.5 |
| 20260508071904 | 58 | 176 | 1.0 | 2.0 | 0.00 | 0.03 | 0.00 | 78 | 1012.4 |
| 20260508071405 | 58 | 268 | 0.0 | 1.0 | 0.00 | 0.03 | 0.00 | 78 | 1012.6 |
| 20260508070405 | 57 | 39 | 0.0 | 3.0 | 0.00 | 0.03 | 0.00 | 79 | 1012.6 |
| 20260508061405 | 55 | 296 | 2.0 | 3.0 | 0.00 | 0.03 | 0.00 | 83 | 1012.1 |
| 20260508060904 | 55 | 282 | 1.0 | 3.0 | 0.00 | 0.03 | 0.00 | 84 | 1012.2 |
| 20260508060405 | 54 | 175 | 2.0 | 6.0 | 0.00 | 0.03 | 0.00 | 83 | 1012.0 |
| 20260508054904 | 54 | 253 | 3.0 | 7.0 | 0.00 | 0.03 | 0.00 | 82 | 1011.5 |
| 20260508054405 | 54 | 238 | 3.0 | 7.0 | 0.00 | 0.03 | 0.00 | 81 | 1011.6 |
| 20260508053405 | 53 | 355 | 4.0 | 7.0 | 0.00 | 0.03 | 0.00 | 82 | 1011.2 |
| 20260508051405 | 55 | 158 | 2.0 | 5.0 | 0.00 | 0.03 | 0.00 | 82 | 1011.7 |
| 20260508050404 | 55 | 246 | 4.0 | 7.0 | 0.00 | 0.03 | 0.00 | 81 | 1011.7 |
| 20260508044904 | 55 | 254 | 3.0 | 3.0 | 0.00 | 0.03 | 0.00 | 79 | 1011.4 |
| 20260508043904 | 54 | 327 | 2.0 | 3.0 | 0.00 | 0.03 | 0.00 | 79 | 1011.3 |
| 20260508040404 | 55 | 263 | 2.0 | 3.0 | 0.00 | 0.03 | 0.00 | 82 | 1011.7 |
| 20260508033904 | 55 | 280 | 2.0 | 3.0 | 0.00 | 0.03 | 0.00 | 85 | 1011.8 |
| 20260508031904 | 54 | 299 | 2.0 | 3.0 | 0.00 | 0.03 | 0.00 | 81 | 1011.8 |
| 20260508031404 | 54 | 298 | 2.0 | 3.0 | 0.00 | 0.03 | 0.00 | 81 | 1011.6 |
| 20260508030905 | 54 | 310 | 1.0 | 3.0 | 0.00 | 0.03 | 0.00 | 82 | 1011.6 |
| 20260508023904 | 54 | 0 | 2.0 | 3.0 | 0.00 | 0.03 | 0.00 | 83 | 1011.8 |
| 20260508021905 | 56 | 292 | 0.0 | 1.0 | 0.00 | 0.03 | 0.00 | 83 | 1011.8 |
| 20260508020405 | 55 | 306 | 1.0 | 3.0 | 0.00 | 0.03 | 0.00 | 82 | 1011.6 |
| 20260508013905 | 56 | 276 | 2.0 | 3.0 | 0.00 | 0.03 | 0.00 | 81 | 1011.3 |
| 20260508011904 | 56 | 250 | 2.0 | 3.0 | 0.00 | 0.03 | 0.00 | 78 | 1011.9 |
| 20260508004905 | 56 | 285 | 2.0 | 3.0 | 0.00 | 0.03 | 0.00 | 74 | 1012.1 |
| 20260508004405 | 56 | 283 | 2.0 | 3.0 | 0.00 | 0.03 | 0.00 | 73 | 1012.2 |
| 20260508001404 | 57 | 300 | 0.0 | 3.0 | 0.00 | 0.03 | 0.00 | 74 | 1012.5 |
| 20260508000405 | 57 | 295 | 2.0 | 3.0 | 0.00 | 0.03 | 0.00 | 72 | 1012.7 |
| 20260507234405 | 57 | 327 | 0.0 | 1.0 | 0.00 | 0.03 | 0.00 | 73 | 1012.9 |
| 20260507233405 | 57 | 327 | 0.0 | 2.0 | 0.00 | 0.03 | 0.00 | 73 | 1013.0 |
| 20260507231404 | 57 | 11 | 1.0 | 2.0 | 0.00 | 0.03 | 0.00 | 70 | 1013.0 |
| 20260507223904 | 58 | 67 | 3.0 | 5.0 | 0.00 | 0.03 | 0.00 | 67 | 1012.8 |
| 20260507214405 | 59 | 244 | 1.0 | 3.0 | 0.00 | 0.03 | 0.03 | 71 | 1012.3 |
| 20260507213904 | 59 | 256 | 3.0 | 3.0 | 0.00 | 0.03 | 0.03 | 69 | 1012.2 |
| 20260507213405 | 59 | 247 | 2.0 | 3.0 | 0.00 | 0.03 | 0.03 | 66 | 1012.1 |
| 20260507211904 | 59 | 308 | 0.0 | 0.0 | 0.00 | 0.03 | 0.03 | 64 | 1012.3 |
| 20260507211404 | 59 | 311 | 0.0 | 0.0 | 0.00 | 0.03 | 0.03 | 63 | 1012.3 |
| 20260507210404 | 60 | 339 | 0.0 | 2.0 | 0.00 | 0.03 | 0.03 | 63 | 1012.2 |
| 20260507204904 | 60 | 356 | 1.0 | 3.0 | 0.00 | 0.03 | 0.03 | 61 | 1012.0 |
| 20260507204405 | 60 | 305 | 1.0 | 2.0 | 0.00 | 0.03 | 0.03 | 61 | 1012.0 |
| 20260507203405 | 60 | 297 | 2.0 | 3.0 | 0.00 | 0.03 | 0.03 | 62 | 1011.7 |
| 20260507201405 | 61 | 282 | 2.0 | 3.0 | 0.00 | 0.03 | 0.03 | 62 | 1011.6 |
| 20260507200404 | 61 | 245 | 3.0 | 3.0 | 0.00 | 0.03 | 0.03 | 60 | 1011.5 |
| 20260507194904 | 61 | 92 | 2.0 | 3.0 | 0.00 | 0.03 | 0.03 | 58 | 1011.3 |
| 20260507193404 | 62 | 106 | 5.0 | 7.0 | 0.00 | 0.03 | 0.03 | 57 | 1011.2 |
| 20260507190904 | 62 | 104 | 6.0 | 8.0 | 0.00 | 0.03 | 0.03 | 57 | 1010.9 |
| 20260507190404 | 62 | 108 | 7.0 | 8.0 | 0.00 | 0.03 | 0.03 | 57 | 1011.0 |
| 20260507184904 | 62 | 115 | 5.0 | 7.0 | 0.00 | 0.03 | 0.03 | 58 | 1010.9 |
| 20260507184404 | 62 | 98 | 5.0 | 8.0 | 0.00 | 0.03 | 0.03 | 59 | 1010.8 |
| 20260507183404 | 62 | 110 | 6.0 | 12.0 | 0.00 | 0.03 | 0.03 | 59 | 1010.7 |
| 20260507181404 | 64 | 2 | 4.0 | 9.0 | 0.00 | 0.03 | 0.03 | 56 | 1010.5 |
| 20260507174405 | 65 | 113 | 7.0 | 10.0 | 0.00 | 0.03 | 0.03 | 47 | 1010.1 |
| 20260507173905 | 66 | 149 | 5.0 | 9.0 | 0.00 | 0.03 | 0.03 | 48 | 1010.0 |
| 20260507173405 | 66 | 131 | 2.0 | 12.0 | 0.00 | 0.03 | 0.03 | 49 | 1010.1 |
| 20260507171905 | 66 | 143 | 3.0 | 14.0 | 0.00 | 0.03 | 0.03 | 49 | 1010.0 |
| 20260507170905 | 66 | 156 | 2.0 | 14.0 | 0.00 | 0.03 | 0.03 | 49 | 1009.9 |
| 20260507170404 | 66 | 141 | 6.0 | 17.0 | 0.00 | 0.03 | 0.03 | 49 | 1009.9 |
| 20260507164905 | 66 | 141 | 9.0 | 17.0 | 0.00 | 0.03 | 0.03 | 49 | 1009.8 |
| 20260507164404 | 66 | 101 | 8.0 | 17.0 | 0.00 | 0.03 | 0.03 | 48 | 1009.9 |
| 20260507161405 | 67 | 115 | 9.0 | 13.0 | 0.00 | 0.03 | 0.03 | 51 | 1009.7 |
| 20260507154904 | 68 | 99 | 7.0 | 12.0 | 0.00 | 0.03 | 0.03 | 48 | 1009.7 |
| 20260507151404 | 69 | 37 | 2.0 | 6.0 | 0.00 | 0.03 | 0.03 | 50 | 1009.9 |
| 20260507150404 | 67 | 205 | 5.0 | 16.0 | 0.00 | 0.03 | 0.03 | 53 | 1010.0 |
| 20260507143404 | 68 | 123 | 6.0 | 12.0 | 0.00 | 0.03 | 0.03 | 56 | 1010.5 |
| 20260507140905 | 66 | 106 | 10.0 | 14.0 | 0.00 | 0.03 | 0.03 | 59 | 1010.7 |
| 20260507140404 | 66 | 118 | 9.0 | 17.0 | 0.00 | 0.03 | 0.03 | 57 | 1010.8 |
| 20260507133904 | 64 | 106 | 6.0 | 17.0 | 0.00 | 0.03 | 0.03 | 69 | 1011.4 |
| 20260507131906 | 63 | 84 | 5.0 | 10.0 | 0.00 | 0.03 | 0.03 | 73 | 1011.6 |
| 20260507131405 | 62 | 89 | 6.0 | 14.0 | 0.00 | 0.03 | 0.03 | 72 | 1011.6 |
| 20260507130904 | 63 | 117 | 7.0 | 12.0 | 0.00 | 0.03 | 0.03 | 70 | 1011.6 |
| 20260507124904 | 63 | 116 | 13.0 | 18.0 | 0.00 | 0.03 | 0.03 | 68 | 1011.7 |
| 20260507123904 | 63 | 100 | 10.0 | 17.0 | 0.00 | 0.03 | 0.03 | 71 | 1012.0 |
| 20260507120404 | 62 | 117 | 12.0 | 21.0 | 0.00 | 0.03 | 0.03 | 71 | 1012.2 |
| 20260507114904 | 62 | 121 | 13.0 | 20.0 | 0.00 | 0.03 | 0.03 | 76 | 1012.1 |
| 20260507114404 | 62 | 117 | 8.0 | 18.0 | 0.00 | 0.03 | 0.03 | 76 | 1012.1 |
| 20260507111404 | 61 | 124 | 10.0 | 16.0 | 0.03 | 0.03 | 0.03 | 75 | 1012.3 |
| 20260507110904 | 61 | 116 | 9.0 | 17.0 | 0.03 | 0.03 | 0.03 | 76 | 1012.2 |
| 20260507110404 | 61 | 110 | 7.0 | 20.0 | 0.03 | 0.03 | 0.03 | 78 | 1012.2 |
| 20260507104904 | 60 | 105 | 9.0 | 13.0 | 0.03 | 0.03 | 0.03 | 81 | 1012.1 |
| 20260507103904 | 60 | 136 | 10.0 | 17.0 | 0.03 | 0.03 | 0.03 | 80 | 1012.3 |
| 20260507103404 | 59 | 118 | 10.0 | 18.0 | 0.03 | 0.03 | 0.03 | 80 | 1012.1 |
| 20260507100904 | 61 | 106 | 10.0 | 23.0 | 0.00 | 0.00 | 0.00 | 80 | 1011.4 |
| 20260507094904 | 63 | 122 | 13.0 | 23.0 | 0.00 | 0.00 | 0.00 | 78 | 1011.1 |
| 20260507093405 | 63 | 124 | 14.0 | 25.0 | 0.00 | 0.00 | 0.00 | 78 | 1011.1 |